TimeEDT,TemperatureF,Dew PointF,Humidity,Sea Level PressureIn,VisibilityMPH,Wind Direction,Wind SpeedMPH,Gust SpeedMPH,PrecipitationIn,Events,Conditions,WindDirDegrees,DateUTC
12:51 AM,51.1,51.1,100,30.19,6.0,East,4.6,-,N/A,Fog,Clear,90,2012-03-17 04:51:00
1:51 AM,51.1,50.0,96,30.19,5.0,East,5.8,-,N/A,Fog,Clear,100,2012-03-17 05:51:00
2:51 AM,52.0,51.1,97,30.20,5.0,ESE,4.6,-,N/A,Fog,Clear,110,2012-03-17 06:51:00
3:51 AM,51.1,51.1,100,30.19,4.0,SE,4.6,-,N/A,Fog,Clear,130,2012-03-17 07:51:00
4:51 AM,53.1,52.0,96,30.19,4.0,ESE,4.6,-,N/A,Fog,Clear,110,2012-03-17 08:51:00
5:51 AM,50.0,48.0,93,30.20,4.0,East,5.8,-,N/A,Fog,Clear,100,2012-03-17 09:51:00
6:51 AM,48.9,48.0,97,30.23,3.0,SE,3.5,-,N/A,Fog,Clear,130,2012-03-17 10:51:00
7:15 AM,51.8,50.0,94,30.23,2.5,Calm,Calm,-,N/A,Fog,Clear,0,2012-03-17 11:15:00
7:51 AM,46.4,46.4,100,30.24,2.5,ESE,4.6,-,N/A,Fog,Partly Cloudy,110,2012-03-17 11:51:00
8:51 AM,53.1,52.0,96,30.26,2.5,ESE,3.5,-,N/A,Fog,Partly Cloudy,110,2012-03-17 12:51:00
9:20 AM,55.4,53.6,94,30.25,3.0,SSE,3.5,-,N/A,Fog,Partly Cloudy,150,2012-03-17 13:20:00
9:51 AM,60.1,55.9,86,30.25,4.0,South,4.6,-,N/A,Fog,Partly Cloudy,170,2012-03-17 13:51:00
10:51 AM,64.0,55.9,75,30.25,7.0,SE,8.1,-,N/A,,Partly Cloudy,140,2012-03-17 14:51:00
11:51 AM,69.1,55.9,63,30.24,10.0,SE,9.2,-,N/A,,Scattered Clouds,140,2012-03-17 15:51:00
12:51 PM,70.0,54.0,57,30.23,10.0,Variable,4.6,-,N/A,,Scattered Clouds,0,2012-03-17 16:51:00
1:51 PM,73.0,53.1,49,30.21,10.0,Variable,5.8,-,N/A,,Scattered Clouds,0,2012-03-17 17:51:00
2:51 PM,73.9,51.1,45,30.18,10.0,SSW,8.1,-,N/A,,Scattered Clouds,200,2012-03-17 18:51:00
3:51 PM,73.9,50.0,43,30.17,10.0,ESE,8.1,-,N/A,,Scattered Clouds,110,2012-03-17 19:51:00
4:51 PM,75.9,46.0,35,30.15,10.0,SE,9.2,-,N/A,,Scattered Clouds,140,2012-03-17 20:51:00
5:51 PM,75.0,42.1,31,30.14,10.0,ESE,12.7,-,N/A,,Scattered Clouds,120,2012-03-17 21:51:00
6:51 PM,73.0,43.0,34,30.15,10.0,SE,6.9,-,N/A,,Partly Cloudy,140,2012-03-17 22:51:00
7:51 PM,71.1,42.1,35,30.16,10.0,SSE,3.5,-,N/A,,Partly Cloudy,150,2012-03-17 23:51:00
8:51 PM,62.6,42.8,48,30.16,10.0,ESE,4.6,-,N/A,,Scattered Clouds,110,2012-03-18 00:51:00
9:51 PM,59.0,45.0,60,30.16,10.0,ESE,4.6,-,N/A,,Scattered Clouds,110,2012-03-18 01:51:00
10:51 PM,63.0,44.1,50,30.16,10.0,ESE,5.8,-,N/A,,Scattered Clouds,120,2012-03-18 02:51:00
11:51 PM,64.0,43.0,46,30.16,10.0,SE,8.1,-,N/A,,Mostly Cloudy,140,2012-03-18 03:51:00